Weather History for KL35 - December, 2012

Change the Weather History Date:

Saturday, December 15, 2012

  Actual Average (KBUO) Record (KBUO)
Temperature  
Mean Temperature 28 °F -  
Max Temperature 32 °F 60 °F 71 °F (1998)
Min Temperature 23 °F 42 °F 37 °F (1997)
Degree Days  
Heating Degree Days 38    
Moisture  
Dew Point 18 °F    
Average Humidity 65    
Maximum Humidity 86    
Minimum Humidity 32    
Precipitation  
Precipitation 0.00 in - - ()
Sea Level Pressure  
Sea Level Pressure 29.90 in    
Wind  
Wind Speed 9 mph (WSW)    
Max Wind Speed 17 mph    
Max Gust Speed 26 mph    
Visibility 8 miles    
Events Snow    
Averages and records for this station are not official NWS values.
T = Trace of Precipitation, MM = Missing Value Source: NWS Daily Summary

Daily Weather History Graph

Daily Weather History Graph

Search for Another Location

Airport or City:

Trip Planner

Search our weather history database for the weather conditions in past years. The results will help you decide how hot, cold, wet, or windy it might be!

Date:

Astronomy

Dec. 15, 2012 Rise Set
Actual Time 6:46 AM PST 4:39 PM PST
Civil Twilight 6:18 AM PST 5:07 PM PST
Nautical Twilight 5:47 AM PST 5:38 PM PST
Astronomical Twilight 5:16 AM PST 6:09 PM PST
Moon 8:47 AM PST (12/15) 7:43 PM PST (12/15)
Length of Visible Light 10h 48m
Length of Day
9h 52m
Waxing Crescent, 9% of the Moon is Illuminated
Dec 15
Waxing Crescent
Dec 19
First Quarter
Dec 28
Full
Jan 4
Last Quarter
Jan 11
New

Hourly Weather History & Observations

Time (PST) Temp. Windchill Dew Point Humidity Pressure Visibility Wind Dir Wind Speed Gust Speed Precip Events Conditions
12:15 AM 28.4 °F 19.1 °F 24.8 °F 86% 29.84 in 1.5 mi West 10.4 mph - N/A Snow Light Snow
12:35 AM 28.4 °F 19.7 °F 23.0 °F 80% 29.84 in 4.0 mi West 9.2 mph - N/A Snow Light Snow
12:55 AM 28.4 °F 19.1 °F 23.0 °F 80% 29.83 in 3.0 mi West 10.4 mph - N/A Snow Light Snow
1:15 AM 26.6 °F 17.5 °F 23.0 °F 86% 29.83 in 1.2 mi West 9.2 mph - N/A Snow Light Snow
1:35 AM 28.4 °F 19.7 °F 23.0 °F 80% 29.83 in 1.2 mi West 9.2 mph - N/A Snow Light Snow
1:55 AM 28.4 °F 23.3 °F 23.0 °F 80% 29.82 in 2.0 mi WSW 4.6 mph - N/A Snow Light Snow
2:15 AM 28.4 °F 21.2 °F 23.0 °F 80% 29.82 in 7.0 mi WSW 6.9 mph - N/A Snow Light Snow
2:35 AM 28.4 °F 20.4 °F 23.0 °F 80% 29.81 in 10.0 mi WSW 8.1 mph - N/A   Overcast
2:55 AM 28.4 °F 20.4 °F 23.0 °F 80% 29.82 in 10.0 mi West 8.1 mph - N/A   Overcast
3:15 AM 28.4 °F 19.7 °F 24.8 °F 86% 29.82 in 5.0 mi West 9.2 mph 16.1 mph N/A   Overcast
3:35 AM 28.4 °F 20.4 °F 24.8 °F 86% 29.83 in 2.5 mi WSW 8.1 mph 17.3 mph N/A   Overcast
4:15 AM 28.4 °F 21.2 °F 24.8 °F 86% 29.83 in 3.0 mi WSW 6.9 mph - N/A Snow Light Snow
4:35 AM 28.4 °F 21.2 °F 24.8 °F 86% 29.84 in 4.0 mi WSW 6.9 mph 19.6 mph N/A   Overcast
4:55 AM 28.4 °F 17.0 °F 23.0 °F 80% 29.84 in 3.0 mi WSW 15.0 mph 21.9 mph N/A Snow Light Snow
5:15 AM 28.4 °F 20.4 °F 23.0 °F 80% 29.84 in 3.0 mi WSW 8.1 mph 19.6 mph N/A   Haze
5:35 AM 26.6 °F 16.2 °F 23.0 °F 86% 29.84 in 5.0 mi WSW 11.5 mph 18.4 mph N/A   Mostly Cloudy
5:55 AM 26.6 °F 17.5 °F 23.0 °F 86% 29.84 in 3.0 mi WSW 9.2 mph 18.4 mph N/A   Overcast
6:15 AM 26.6 °F 14.3 °F 21.2 °F 80% 29.85 in 2.5 mi West 16.1 mph 26.5 mph N/A Snow Light Snow
6:35 AM 24.8 °F 11.5 °F 19.4 °F 80% 29.86 in 5.0 mi West 17.3 mph 26.5 mph N/A   Haze
6:55 AM 23.0 °F 10.6 °F 17.6 °F 80% 29.86 in 10.0 mi West 13.8 mph 18.4 mph N/A   Mostly Cloudy
7:15 AM 23.0 °F 11.1 °F 17.6 °F 80% 29.86 in 10.0 mi West 12.7 mph 18.4 mph N/A   Mostly Cloudy
7:35 AM 23.0 °F 11.1 °F 14.0 °F 68% 29.87 in 10.0 mi West 12.7 mph - N/A   Scattered Clouds
7:55 AM 23.0 °F 11.1 °F 15.8 °F 74% 29.88 in 7.0 mi West 12.7 mph - N/A   Scattered Clouds
8:15 AM 24.8 °F 12.9 °F 14.0 °F 64% 29.88 in 3.0 mi West 13.8 mph 18.4 mph N/A   Haze
8:35 AM 24.8 °F 16.1 °F 14.0 °F 64% 29.89 in 10.0 mi West 8.1 mph 11.5 mph N/A   Clear
8:55 AM 26.6 °F 17.5 °F 14.0 °F 59% 29.90 in 10.0 mi West 9.2 mph - N/A   Clear
9:15 AM 26.6 °F 17.5 °F 14.0 °F 59% 29.91 in 10.0 mi West 9.2 mph - N/A   Clear
9:35 AM 26.6 °F 16.8 °F 14.0 °F 59% 29.92 in 10.0 mi West 10.4 mph - N/A   Clear
9:55 AM 26.6 °F 20.0 °F 14.0 °F 59% 29.92 in 10.0 mi WSW 5.8 mph - N/A   Clear
10:15 AM 28.4 °F 22.2 °F 15.8 °F 59% 29.92 in 10.0 mi WSW 5.8 mph - N/A   Clear
10:35 AM 28.4 °F 23.3 °F 12.2 °F 51% 29.93 in 10.0 mi WSW 4.6 mph - N/A   Clear
10:55 AM 30.2 °F 25.4 °F 12.2 °F 47% 29.92 in 10.0 mi SSW 4.6 mph - N/A   Clear
11:15 AM 30.2 °F 26.7 °F 17.6 °F 60% 29.91 in 10.0 mi WNW 3.5 mph - N/A   Clear
11:35 AM 30.2 °F 26.7 °F 14.0 °F 51% 29.90 in 10.0 mi WNW 3.5 mph - N/A   Clear
11:55 AM 32.0 °F 28.7 °F 14.0 °F 48% 29.90 in 10.0 mi West 3.5 mph - N/A   Clear
12:15 PM 32.0 °F 24.8 °F 15.8 °F 51% 29.91 in 10.0 mi West 8.1 mph - N/A   Clear
12:35 PM 32.0 °F 24.8 °F 17.6 °F 55% 29.90 in 10.0 mi West 8.1 mph - N/A   Clear
12:55 PM 32.0 °F 24.8 °F 17.6 °F 55% 29.90 in 10.0 mi West 8.1 mph - N/A   Clear
1:15 PM 32.0 °F 24.8 °F 17.6 °F 55% 29.90 in 10.0 mi West 8.1 mph - N/A   Clear
1:35 PM 32.0 °F 25.6 °F 17.6 °F 55% 29.90 in 10.0 mi West 6.9 mph - N/A   Clear
1:55 PM 32.0 °F 25.6 °F 17.6 °F 55% 29.90 in 10.0 mi West 6.9 mph - N/A   Clear
2:15 PM 32.0 °F 24.8 °F 15.8 °F 51% 29.91 in 10.0 mi West 8.1 mph - N/A   Clear
2:35 PM 32.0 °F 24.8 °F 15.8 °F 51% 29.91 in 10.0 mi West 8.1 mph - N/A   Clear
2:55 PM 32.0 °F 24.8 °F 15.8 °F 51% 29.92 in 10.0 mi WSW 8.1 mph 16.1 mph N/A   Clear
3:15 PM 32.0 °F 23.6 °F 14.0 °F 48% 29.92 in 10.0 mi West 10.4 mph - N/A   Clear
3:35 PM 32.0 °F 25.6 °F 10.4 °F 41% 29.93 in 10.0 mi WSW 6.9 mph - N/A   Clear
3:55 PM 32.0 °F 25.6 °F 5.0 °F 32% 29.92 in 10.0 mi WSW 6.9 mph - N/A   Clear
4:15 PM 30.2 °F 24.3 °F 6.8 °F 37% 29.93 in 10.0 mi SW 5.8 mph - N/A   Clear
4:35 PM 30.2 °F 21.9 °F 5.0 °F 34% 29.92 in 10.0 mi West 9.2 mph - N/A   Clear
4:55 PM 30.2 °F 24.3 °F 10.4 °F 44% 29.93 in 10.0 mi WSW 5.8 mph - N/A   Clear
5:15 PM 28.4 °F 19.7 °F 12.2 °F 51% 29.93 in 10.0 mi WSW 9.2 mph - N/A   Clear
5:35 PM 30.2 °F 22.6 °F 10.4 °F 44% 29.93 in 10.0 mi West 8.1 mph - N/A   Clear
5:55 PM 30.2 °F 24.3 °F 12.2 °F 47% 29.94 in 10.0 mi West 5.8 mph - N/A   Clear
6:15 PM 28.4 °F 23.3 °F 14.0 °F 55% 29.94 in 10.0 mi West 4.6 mph - N/A   Clear
6:35 PM 28.4 °F 24.6 °F 15.8 °F 59% 29.94 in 10.0 mi WSW 3.5 mph - N/A   Scattered Clouds
6:55 PM 30.2 °F 25.4 °F 15.8 °F 55% 29.95 in 10.0 mi WSW 4.6 mph - N/A   Mostly Cloudy
7:15 PM 30.2 °F 26.7 °F 15.8 °F 55% 29.95 in 10.0 mi WSW 3.5 mph - N/A   Mostly Cloudy
7:35 PM 30.2 °F 25.4 °F 17.6 °F 60% 29.95 in 10.0 mi West 4.6 mph - N/A   Overcast
7:55 PM 32.0 °F 23.6 °F 15.8 °F 51% 29.95 in 10.0 mi West 10.4 mph 17.3 mph N/A   Overcast
8:15 PM 32.0 °F 24.2 °F 17.6 °F 55% 29.95 in 10.0 mi WSW 9.2 mph 18.4 mph N/A   Overcast
8:35 PM 30.2 °F 21.9 °F 19.4 °F 64% 29.94 in 10.0 mi WSW 9.2 mph - N/A   Overcast
8:55 PM 28.4 °F 19.1 °F 21.2 °F 74% 29.94 in 7.0 mi WSW 10.4 mph 19.6 mph N/A   Overcast
9:15 PM 28.4 °F 20.4 °F 23.0 °F 80% 29.95 in 5.0 mi SW 8.1 mph - N/A Snow Light Snow
9:35 PM 28.4 °F 19.1 °F 21.2 °F 74% 29.95 in 7.0 mi WSW 10.4 mph 18.4 mph N/A   Mostly Cloudy
9:55 PM 28.4 °F 19.7 °F 21.2 °F 74% 29.96 in 4.0 mi WSW 9.2 mph 20.7 mph N/A Snow Light Snow
10:15 PM 28.4 °F 18.5 °F 21.2 °F 74% 29.97 in 10.0 mi WSW 11.5 mph 17.3 mph N/A   Overcast
10:55 PM 28.4 °F 17.5 °F 19.4 °F 69% 29.97 in 10.0 mi West 13.8 mph 23.0 mph N/A   Mostly Cloudy
11:15 PM 28.4 °F 18.0 °F 21.2 °F 74% 29.97 in 10.0 mi West 12.7 mph 19.6 mph N/A   Scattered Clouds
11:35 PM 28.4 °F 18.0 °F 21.2 °F 74% 29.97 in 10.0 mi WSW 12.7 mph 21.9 mph N/A   Mostly Cloudy
11:55 PM 26.6 °F 16.2 °F 23.0 °F 86% 29.98 in 10.0 mi WSW 11.5 mph 17.3 mph N/A   Overcast